Merry Christmas and Happy New Year!

 

Sretan Božić i Nova godina!

 

METAR

METAR LDZA 290230Z 00000KT 0300 R04/0800N R22/1200U FG VV002 08/08 Q1018 NOSIG =
METAR LDSP 290230Z AUTO 21004KT 180V250 CAVOK 14/11 Q1015=
METAR LDDU 290230Z 02010KT 320V110 CAVOK 16/07 Q1014 =
METAR LDZD 290230Z 17002KT 3000 BR NSC 06/06 Q1016 =
METAR LDPL 290230Z 34008KT CAVOK 11/09 Q1017=
METAR LDOS 290230Z 12002KT 0400 FG VV002 10/10 Q1017=
METAR LDRI 290230Z VRB01KT CAVOK 10/09 Q1016=

TAF

TAF LDZA 282325Z 2900/3000 VRB02KT 0200 FG VV001
                 TX14/2914Z TN05/2903Z
           BECMG 2909/2911 3000 BR OVC003
           BECMG 2913/2915 6000 NSW SCT010
           BECMG 2920/2922 2000 BR=
TAF LDSP 282325Z 2900/3000 VRB02KT CAVOK
                 TX19/2912Z TN13/2905Z
           BECMG 2909/2911 35012KT=
TAF LDDU 282325Z 2900/3000 02012KT CAVOK
                 TX20/2911Z TN15/2904Z
           BECMG 2906/2908 21006KT
           BECMG 2912/2914 29008KT
           BECMG 2920/2922 02012KT=
TAF LDZD 282325Z 2900/3000 VRB02KT CAVOK
                 TX18/2912Z TN07/2905Z
           TEMPO 2900/2906 0500 BCFG
           BECMG 2909/2911 31012KT
           BECMG 2917/2919 35005KT=
TAF LDPL 282325Z 2900/3000 33006KT CAVOK
                 TX17/2913Z TN09/2904Z=
TAF LDOS 282325Z 2900/3000 VRB02KT 0400 FG VV002
                 TX14/2914Z TN08/2905Z
           BECMG 2909/2911 2000 BR BKN005
           BECMG 2912/2914 6000 NSW BKN020
           TEMPO 2917/2920 35010KT SHRA FEW015TCU BKN030
           BECMG 2920/2922 2000 BR=
TAF LDRI 282325Z 2900/3000 VRB02KT CAVOK
                 TX19/2914Z TN08/2906Z=

SIGMET

AIRMET

Remark

Ukoliko se brzina i smjer vjetra ne mogu odrediti zbog privremenog kvara sustava/indikatora,
informacija o vjetru u METAR izvješću bit će prikazana kao "/////KT".

 

Disclaimer

 

In case of temporary system/sensor failure, wind speed and direction data will be represented as "/////KT" in METAR report.

 

If you cannot log in with your user account, please contact stjepko.jancijev@crocontrol.hr.
Specifically, the website deactivates user accounts that have not been used for more than 365 days, so they must be reactivated.
 

         

      Politika MET podataka      

 

Ukoliko se svojim korisničkim računom ne možete logirati na web stranicu, molim vas da se obratite na stjepko.jancijev@crocontrol.hr.

Naime, web stranica deaktivira korisničke račune koji nisu korišteni više od 365 dana te ih je potrebno ponovno aktivirati.